Granada, Spain

11:49 AM CEST on June 26, 2017 (GMT +0200)
Granada

Weather History for LEGR - October, 2011

Change the Weather History Date:

Tuesday, October 25, 2011

  Actual Average Record
Temperature  
Mean Temperature 56 °F -  
Max Temperature 65 °F 62 °F 85 °F (2013)
Min Temperature 47 °F 40 °F 41 °F (2002)
Degree Days  
Heating Degree Days 9    
Growing Degree Days 6 (Base 50)    
Moisture  
Dew Point 48 °F    
Average Humidity 75    
Maximum Humidity 100    
Minimum Humidity 49    
Precipitation  
Precipitation 0.00 in - - ()
Sea Level Pressure  
Sea Level Pressure 29.88 in    
Wind  
Wind Speed 2 mph ()    
Max Wind Speed 12 mph    
Max Gust Speed -    
Visibility 6.7 miles    
Events      
Averages and records for this station are not official NWS values.
T = Trace of Precipitation, MM = Missing Value Source: Averaged Metar Reports

Daily Weather History Graph

Daily Weather History Graph

Search for Another Location

Airport or City:

Trip Planner

Search our weather history database for the weather conditions in past years. The results will help you decide how hot, cold, wet, or windy it might be!

Date:

Astronomy

Oct. 25, 2011 Rise Set
Actual Time 8:31 AM CEST 7:25 PM CEST
Civil Twilight 8:05 AM CEST 7:52 PM CEST
Nautical Twilight 7:34 AM CEST 8:22 PM CEST
Astronomical Twilight 7:04 AM CEST 8:53 PM CEST
Moon 6:47 AM CEST (10/25) 6:17 PM CEST (10/25)
Length of Visible Light 11h 47m
Length of Day
10h 53m
Waning Crescent, 3% of the Moon is Illuminated
Oct 25
Waning Crescent
Oct 26
New
Nov 2
First Quarter
Nov 10
Full
Nov 18
Last Quarter

Hourly Weather History & Observations

Time (CEST) Temp. Dew Point Humidity Pressure Visibility Wind Dir Wind Speed Gust Speed Precip Events Conditions
2:00 AM 52 °F 50 °F 89% 29.74 in 9 mi Calm Calm - -   Mist
6:00 AM 48.2 °F 48.2 °F 100% 29.77 in 6.2 mi Variable 1.2 mph - N/A   Scattered Clouds
6:30 AM 48.2 °F 48.2 °F 100% 29.77 in 6.2 mi Calm Calm - N/A   Scattered Clouds
7:00 AM 48.2 °F 48.2 °F 100% 29.80 in 6.2 mi Calm Calm - N/A   Scattered Clouds
7:30 AM 48.2 °F 48.2 °F 100% 29.80 in 6.2 mi Calm Calm - N/A   Scattered Clouds
8:00 AM 49 °F 48 °F 94% 29.81 in 4 mi Calm Calm - -   Mist
8:00 AM 50.0 °F 48.2 °F 94% 29.80 in 5.6 mi Calm Calm - N/A   Mostly Cloudy
8:30 AM 50.0 °F 50.0 °F 100% 29.80 in 5.6 mi Calm Calm - N/A   Mostly Cloudy
9:00 AM 50.0 °F 50.0 °F 100% 29.83 in 5.0 mi Calm Calm - N/A   Scattered Clouds
9:30 AM 51.8 °F 50.0 °F 94% 29.83 in 5.6 mi Calm Calm - N/A   Partly Cloudy
10:00 AM 53.6 °F 51.8 °F 94% 29.86 in 5.0 mi Calm Calm - N/A   Partly Cloudy
10:30 AM 55.4 °F 53.6 °F 94% 29.86 in 4.3 mi Calm Calm - N/A   Partly Cloudy
11:00 AM 55.4 °F 53.6 °F 94% 29.89 in 5.0 mi Variable 2.3 mph - N/A   Partly Cloudy
11:30 AM 57.2 °F 50.0 °F 77% 29.89 in 6.2 mi West 5.8 mph - N/A   Partly Cloudy
12:00 PM 59.0 °F 48.2 °F 67% 29.89 in 6.2 mi Variable 3.5 mph - N/A   Partly Cloudy
12:30 PM 59.0 °F 46.4 °F 63% 29.89 in 6.2 mi Variable 1.2 mph - N/A   Scattered Clouds
1:00 PM 59.0 °F 46.4 °F 63% 29.89 in 6.2 mi Calm Calm - N/A   Scattered Clouds
1:30 PM 60.8 °F 46.4 °F 59% 29.89 in 6.2 mi Calm Calm - N/A   Scattered Clouds
2:00 PM 61 °F 47 °F 49% 29.87 in 19 mi East 2.3 mph - -   Partly Cloudy
2:00 PM 60.8 °F 48.2 °F 63% 29.89 in 6.2 mi Variable 1.2 mph - N/A   Scattered Clouds
2:30 PM 60.8 °F 44.6 °F 55% 29.89 in 6.2 mi Variable 2.3 mph - N/A   Scattered Clouds
3:00 PM 60.8 °F 48.2 °F 63% 29.89 in 6.2 mi Variable 2.3 mph - N/A   Scattered Clouds
3:30 PM 62.6 °F 46.4 °F 55% 29.89 in 6.2 mi Variable 2.3 mph - N/A   Scattered Clouds
4:00 PM 64.4 °F 46.4 °F 52% 29.89 in 6.2 mi NW 5.8 mph - N/A   Scattered Clouds
4:30 PM 62.6 °F 46.4 °F 55% 29.89 in 6.2 mi WNW 10.4 mph - N/A   Scattered Clouds
5:00 PM 64.4 °F 44.6 °F 49% 29.89 in 6.2 mi West 11.5 mph - N/A   Scattered Clouds
5:30 PM 62.6 °F 44.6 °F 52% 29.89 in 6.2 mi WNW 3.5 mph - N/A   Scattered Clouds
6:00 PM 64.4 °F 44.6 °F 49% 29.89 in 6.2 mi Variable 1.2 mph - N/A   Scattered Clouds
6:30 PM 62.6 °F 46.4 °F 55% 29.92 in 6.2 mi WSW 8.1 mph - N/A   Partly Cloudy
7:00 PM 60.8 °F 46.4 °F 59% 29.92 in 6.2 mi West 8.1 mph - N/A   Partly Cloudy
7:30 PM 59.0 °F 46.4 °F 63% 29.92 in 6.2 mi WSW 5.8 mph - N/A   Partly Cloudy
8:00 PM 58 °F 47 °F 56% 29.92 in 19 mi WSW 5.8 mph - -   Scattered Clouds
8:00 PM 57.2 °F 46.4 °F 67% 29.95 in 6.2 mi WSW 5.8 mph - N/A   Partly Cloudy
8:30 PM 55.4 °F 46.4 °F 72% 29.95 in 6.2 mi SW 3.5 mph - N/A   Partly Cloudy
9:00 PM 55.4 °F 48.2 °F 77% 29.95 in 6.2 mi Variable 2.3 mph - N/A   Partly Cloudy
9:30 PM 53.6 °F 48.2 °F 82% 29.98 in 6.2 mi Calm Calm - N/A   Partly Cloudy
10:00 PM 55.4 °F 48.2 °F 77% 29.98 in 6.2 mi Calm Calm - N/A   Partly Cloudy
10:30 PM 53.6 °F 48.2 °F 82% 29.98 in 6.2 mi Variable 1.2 mph - N/A   Partly Cloudy
11:00 PM 53.6 °F 48.2 °F 82% 30.01 in 6.2 mi Variable 2.3 mph - N/A   Partly Cloudy
11:30 PM 50.0 °F 46.4 °F 87% 30.01 in 6.2 mi SW 3.5 mph - N/A   Partly Cloudy